Valentine, NE

6:31 AM CDT on June 26, 2017 (GMT -0500)
Miller Field

Weather History for KVTN - June, 2013

Change the Weather History Date:

Tuesday, June 4, 2013

  Actual Average Record
Temperature  
Mean Temperature 63 °F 64 °F  
Max Temperature 73 °F 77 °F 96 °F (1977)
Min Temperature 53 °F 51 °F 38 °F (1943)
Degree Days  
Heating Degree Days 2 4  
Month to date heating degree days 23 16  
Since 1 June heating degree days 23 16  
Since 1 July heating degree days 6911 6958  
Cooling Degree Days 0 2  
Month to date cooling degree days 5 8  
Year to date cooling degree days 44 42  
Since 1 June cooling degree days 5 8  
Growing Degree Days 14 (Base 50)    
Moisture  
Dew Point 45 °F    
Average Humidity 55    
Maximum Humidity 72    
Minimum Humidity 38    
Precipitation  
Precipitation 0.00 in 0.13 in 1.61 in (2004)
Month to date precipitation 0.15 0.50  
Year to date precipitation 9.55 7.66  
Snow  
Snow 0.00 in 0.00 in 0.00 in ()
Month to date snowfall 0.0 0.0  
Since 1 June snowfall 0.0 0.0  
Since 1 July snowfall 54.0 33.3  
Snow Depth 0.00 in    
Sea Level Pressure  
Sea Level Pressure 29.96 in    
Wind  
Wind Speed 12 mph (NNW)    
Max Wind Speed 23 mph    
Max Gust Speed 29 mph    
Visibility 10 miles    
Events Rain    
T = Trace of Precipitation, MM = Missing Value Source: NWS Daily Summary

Daily Weather History Graph

Daily Weather History Graph

Search for Another Location

Airport or City:

Trip Planner

Search our weather history database for the weather conditions in past years. The results will help you decide how hot, cold, wet, or windy it might be!

Date:

Astronomy

Jun. 04, 2013 Rise Set
Actual Time 6:04 AM CDT 9:16 PM CDT
Civil Twilight 5:30 AM CDT 9:51 PM CDT
Nautical Twilight 4:45 AM CDT 10:35 PM CDT
Astronomical Twilight 3:52 AM CDT 11:30 PM CDT
Moon 3:40 AM CDT (6/4) 5:43 PM CDT (6/4)
Length of Visible Light 16h 21m
Length of Day
15h 11m
Waning Crescent, 14% of the Moon is Illuminated
Jun 4
Waning Crescent
Jun 8
New
Jun 16
First Quarter
Jun 23
Full
Jun 29
Last Quarter

Hourly Weather History & Observations

Time (CDT) Temp. Dew Point Humidity Pressure Visibility Wind Dir Wind Speed Gust Speed Precip Events Conditions
12:52 AM 60.1 °F 55.9 °F 86% 29.82 in 10.0 mi Calm Calm - 0.01 in Rain Light Rain
1:52 AM 57.9 °F 54.0 °F 87% 29.83 in 10.0 mi Calm Calm - 0.00 in   Mostly Cloudy
2:52 AM 59.0 °F 50.0 °F 72% 29.82 in 10.0 mi NNW 11.5 mph - N/A   Mostly Cloudy
3:52 AM 59.0 °F 46.9 °F 64% 29.84 in 10.0 mi NNW 17.3 mph 25.3 mph N/A   Overcast
4:52 AM 55.9 °F 45.0 °F 67% 29.86 in 10.0 mi NNW 18.4 mph 25.3 mph N/A   Partly Cloudy
5:52 AM 55.0 °F 43.0 °F 64% 29.87 in 10.0 mi NNW 17.3 mph 23.0 mph N/A   Clear
6:52 AM 54.0 °F 42.1 °F 64% 29.91 in 10.0 mi NW 13.8 mph - N/A   Partly Cloudy
7:52 AM 55.9 °F 41.0 °F 57% 29.93 in 10.0 mi NW 15.0 mph 28.8 mph N/A   Clear
8:52 AM 59.0 °F 42.1 °F 53% 29.94 in 10.0 mi NNW 16.1 mph 28.8 mph N/A   Clear
9:52 AM 62.1 °F 43.0 °F 50% 29.96 in 10.0 mi NNW 16.1 mph 25.3 mph N/A   Clear
10:52 AM 64.0 °F 44.1 °F 48% 29.97 in 10.0 mi NNW 13.8 mph 21.9 mph N/A   Clear
11:52 AM 66.9 °F 44.1 °F 44% 29.97 in 10.0 mi NW 9.2 mph - N/A   Scattered Clouds
12:52 PM 69.1 °F 45.0 °F 42% 29.97 in 10.0 mi North 10.4 mph 18.4 mph N/A   Clear
1:52 PM 71.1 °F 45.0 °F 39% 29.97 in 10.0 mi NW 9.2 mph 19.6 mph N/A   Clear
2:52 PM 71.1 °F 45.0 °F 39% 29.98 in 10.0 mi NNE 11.5 mph - N/A   Clear
3:52 PM 71.1 °F 44.1 °F 38% 29.98 in 10.0 mi North 12.7 mph - N/A   Clear
4:52 PM 70.0 °F 45.0 °F 41% 29.99 in 10.0 mi North 8.1 mph 17.3 mph N/A   Partly Cloudy
5:52 PM 69.1 °F 45.0 °F 42% 30.01 in 10.0 mi North 11.5 mph 24.2 mph N/A   Clear
6:52 PM 68.0 °F 45.0 °F 43% 30.01 in 10.0 mi North 13.8 mph - N/A   Clear
7:52 PM 64.0 °F 45.0 °F 50% 30.05 in 10.0 mi North 12.7 mph 20.7 mph N/A   Clear
8:52 PM 60.1 °F 44.1 °F 55% 30.07 in 10.0 mi North 15.0 mph 24.2 mph N/A   Mostly Cloudy
9:52 PM 57.9 °F 44.1 °F 60% 30.09 in 10.0 mi North 9.2 mph - N/A   Mostly Cloudy
10:52 PM 55.9 °F 43.0 °F 62% 30.16 in 10.0 mi NNW 9.2 mph - N/A   Mostly Cloudy
11:52 PM 54.0 °F 43.0 °F 66% 30.16 in 10.0 mi NNW 9.2 mph - N/A   Overcast